KD9QAC Weather Reports


time (UTC)temp
C
wind
direction
speed
KPH
gust
KPH
rain 1hr
cm
rain 24hr
cm
rain mn
cm
humidity
%
barometer
mb
20260906174009 23 81 3.2 8.0 0.00 0.00 0.00 67 1021.9
20260906173512 23 51 3.2 8.0 0.00 0.00 0.00 64 1021.9
20260906173017 23 194 3.2 8.0 0.00 0.00 0.00 64 1021.9
20260906172512 23 19 1.6 4.8 0.00 0.00 0.00 65 1021.9
20260906172010 23 75 0.0 4.8 0.00 0.00 0.00 64 1022.0
20260906171521 23 157 0.0 4.8 0.00 0.00 0.00 65 1022.0
20260906171009 23 51 1.6 4.8 0.00 0.00 0.00 66 1022.0
20260906170510 23 136 1.6 4.8 0.00 0.00 0.00 68 1022.1
20260906170016 23 77 0.0 4.8 0.00 0.00 0.00 69 1022.1
20260906165512 23 68 3.2 4.8 0.00 0.00 0.00 68 1022.0
20260906165012 23 78 0.0 3.2 0.00 0.00 0.00 68 1022.2
20260906164518 23 50 0.0 4.8 0.00 0.00 0.00 70 1022.2
20260906164013 23 79 0.0 4.8 0.00 0.00 0.00 67 1022.2
20260906163514 23 17 1.6 4.8 0.00 0.00 0.00 70 1022.2
20260906163017 22 349 0.0 9.7 0.00 0.00 0.00 70 1022.2
20260906162515 23 29 4.8 9.7 0.00 0.00 0.00 69 1022.1
20260906162010 22 200 1.6 6.4 0.00 0.00 0.00 71 1022.2
20260906161520 23 98 1.6 6.4 0.00 0.00 0.00 71 1022.2
20260906161015 23 111 0.0 3.2 0.00 0.00 0.00 74 1022.2
20260906160514 22 81 0.0 4.8 0.00 0.00 0.00 70 1022.2
20260906160024 23 82 1.6 4.8 0.00 0.00 0.00 72 1022.3
20260906155512 23 102 0.0 4.8 0.00 0.00 0.00 72 1022.3
20260906155011 23 120 1.6 3.2 0.00 0.00 0.00 72 1022.3
20260906154524 22 13 0.0 4.8 0.00 0.00 0.00 76 1022.2
20260906154014 22 71 0.0 4.8 0.00 0.00 0.00 73 1022.2
20260906153513 22 15 0.0 3.2 0.00 0.00 0.00 75 1022.3
20260906153025 22 89 0.0 3.2 0.00 0.00 0.00 74 1022.5
20260906152512 22 12 0.0 3.2 0.00 0.00 0.00 75 1022.5
20260906152011 22 146 0.0 6.4 0.00 0.00 0.00 74 1022.4
20260906151529 22 146 1.6 6.4 0.00 0.00 0.00 71 1022.3
20260906151016 22 163 0.0 8.0 0.00 0.00 0.00 73 1022.2
20260906150514 22 115 3.2 8.0 0.00 0.00 0.00 74 1022.1
20260906150021 21 92 0.0 6.4 0.00 0.00 0.00 74 1022.1
20260906145514 22 112 1.6 4.8 0.00 0.00 0.00 76 1022.1
20260906145014 21 95 1.6 3.2 0.00 0.00 0.00 75 1022.1
20260906144508 21 61 0.0 3.2 0.00 0.00 0.00 76 1022.1
20260906144008 21 72 0.0 3.2 0.00 0.00 0.00 75 1022.0
20260906143506 21 69 1.6 3.2 0.00 0.00 0.00 75 1022.1
20260906143012 21 111 0.0 3.2 0.00 0.00 0.00 76 1022.1
20260906142508 21 111 0.0 3.2 0.00 0.00 0.00 76 1022.1
20260906142009 21 70 0.0 3.2 0.00 0.00 0.00 77 1022.2
20260906141521 21 109 0.0 3.2 0.00 0.00 0.00 80 1022.2
20260906141010 20 178 0.0 3.2 0.00 0.00 0.00 80 1022.2
20260906140510 20 178 0.0 3.2 0.00 0.00 0.00 78 1022.1
20260906140003 20 178 0.0 4.8 0.00 0.00 0.00 81 1022.2
20260906135507 20 178 0.0 4.8 0.00 0.00 0.00 84 1022.2
20260906135007 19 167 1.6 4.8 0.00 0.00 0.00 86 1022.1
20260906134508 19 150 0.0 3.2 0.00 0.00 0.00 89 1022.1
20260906134005 18 130 0.0 3.2 0.00 0.00 0.00 89 1022.0
20260906133506 18 130 0.0 3.2 0.00 0.00 0.00 91 1021.9
20260906133011 18 61 0.0 3.2 0.00 0.00 0.00 91 1021.9
20260906132513 18 50 0.0 0.0 0.00 0.00 0.00 92 1022.0
20260906132007 18 50 0.0 0.0 0.00 0.00 0.00 92 1021.9
20260906131516 17 50 0.0 0.0 0.00 0.00 0.00 92 1022.0
20260906131015 17 25 0.0 0.0 0.00 0.00 0.00 93 1021.9
20260906130509 17 25 0.0 0.0 0.00 0.00 0.00 93 1022.0
20260906130020 17 25 0.0 0.0 0.00 0.00 0.00 93 1022.0
20260906125510 17 25 0.0 0.0 0.00 0.00 0.00 93 1022.0
20260906125010 17 25 0.0 0.0 0.00 0.00 0.00 93 1021.9
20260906124506 16 25 0.0 0.0 0.00 0.00 0.00 93 1021.9
20260906124008 16 25 0.0 0.0 0.00 0.00 0.00 93 1021.9
20260906123505 16 25 0.0 0.0 0.00 0.00 0.00 93 1021.8
20260906123017 16 25 0.0 0.0 0.00 0.00 0.00 93 1021.6
20260906122508 16 25 0.0 0.0 0.00 0.00 0.00 93 1021.6
20260906122008 15 25 0.0 0.0 0.00 0.00 0.00 92 1021.6
20260906121533 15 25 0.0 0.0 0.00 0.00 0.00 92 1021.5
20260906121012 15 25 0.0 0.0 0.00 0.00 0.00 92 1021.3
20260906120512 15 25 0.0 0.0 0.00 0.00 0.00 92 1021.3
20260906120017 15 25 0.0 0.0 0.00 0.00 0.00 92 1021.3
20260906115513 15 25 0.0 0.0 0.00 0.03 0.00 92 1021.4
20260906115014 15 25 0.0 0.0 0.00 0.03 0.00 92 1021.2
20260906114528 15 25 0.0 0.0 0.00 0.03 0.00 92 1021.0
20260906114010 15 25 0.0 0.0 0.00 0.03 0.00 92 1020.9
20260906113507 15 25 0.0 0.0 0.00 0.05 0.00 92 1020.8
20260906113024 15 25 0.0 0.0 0.00 0.05 0.00 92 1020.7
20260906112507 15 25 0.0 0.0 0.00 0.05 0.00 92 1020.7
20260906112010 15 25 0.0 0.0 0.00 0.05 0.00 92 1020.8
20260906111515 15 25 0.0 0.0 0.00 0.05 0.00 92 1020.8
20260906111011 15 25 0.0 0.0 0.00 0.05 0.00 92 1020.8
20260906110510 15 25 0.0 0.0 0.00 0.05 0.00 92 1020.8
20260906110021 15 25 0.0 0.0 0.00 0.05 0.00 92 1020.7
20260906105512 15 25 0.0 0.0 0.00 0.05 0.00 92 1020.6
20260906105014 15 25 0.0 0.0 0.00 0.05 0.00 92 1020.5
20260906104529 15 25 0.0 0.0 0.00 0.05 0.00 92 1020.6
20260906104014 15 25 0.0 0.0 0.00 0.05 0.00 92 1020.5
20260906103514 15 25 0.0 0.0 0.00 0.05 0.00 92 1020.5
20260906103024 15 25 0.0 0.0 0.00 0.05 0.00 92 1020.6
20260906102513 15 25 0.0 0.0 0.00 0.05 0.00 92 1020.6
20260906102007 15 25 0.0 0.0 0.00 0.05 0.00 92 1020.6
20260906101509 15 25 0.0 0.0 0.00 0.05 0.00 92 1020.7
20260906101010 15 25 0.0 0.0 0.00 0.05 0.00 92 1020.7
20260906100511 15 25 0.0 0.0 0.00 0.05 0.00 92 1020.6
20260906100019 15 25 0.0 0.0 0.00 0.05 0.00 92 1020.6
20260906095514 15 25 0.0 0.0 0.00 0.05 0.00 92 1020.5
20260906095012 15 25 0.0 0.0 0.00 0.05 0.00 92 1020.4
20260906094524 14 25 0.0 0.0 0.00 0.05 0.00 91 1020.3
20260906094014 15 25 0.0 0.0 0.00 0.05 0.00 92 1020.3
20260906093518 15 25 0.0 0.0 0.00 0.05 0.00 92 1020.3
20260906093025 14 25 0.0 0.0 0.00 0.05 0.00 91 1020.4
20260906092515 15 25 0.0 0.0 0.00 0.05 0.00 92 1020.2
20260906092018 14 25 0.0 0.0 0.00 0.05 0.00 91 1020.3
20260906091533 14 25 0.0 0.0 0.00 0.05 0.00 91 1020.3
20260906091016 14 25 0.0 0.0 0.00 0.05 0.00 91 1020.3
20260906090509 14 25 0.0 0.0 0.00 0.05 0.00 91 1020.2
20260906090014 14 25 0.0 0.0 0.00 0.05 0.00 91 1020.2
20260906085516 14 25 0.0 0.0 0.00 0.05 0.00 91 1020.2
20260906085012 14 25 0.0 0.0 0.00 0.05 0.00 91 1020.2
20260906084520 14 25 0.0 0.0 0.00 0.05 0.00 91 1020.1
20260906084013 15 25 0.0 0.0 0.00 0.05 0.00 91 1020.2
20260906083518 15 25 0.0 0.0 0.00 0.05 0.00 91 1020.2
20260906083030 15 42 0.0 0.0 0.00 0.05 0.00 91 1020.1
20260906082516 15 42 0.0 0.0 0.00 0.05 0.00 91 1020.1
20260906082014 15 42 0.0 0.0 0.00 0.05 0.00 91 1020.1
20260906081539 15 42 0.0 0.0 0.00 0.05 0.00 91 1020.1
20260906081014 15 42 0.0 0.0 0.00 0.05 0.00 91 1020.1
20260906080516 14 42 0.0 0.0 0.00 0.05 0.00 91 1020.1
20260906080031 15 42 0.0 0.0 0.00 0.05 0.00 91 1020.1
20260906075510 15 42 0.0 0.0 0.00 0.05 0.00 91 1020.1
20260906075011 15 42 0.0 0.0 0.00 0.05 0.00 91 1020.2
20260906074521 15 42 0.0 0.0 0.00 0.05 0.00 91 1020.2
20260906074013 15 42 0.0 0.0 0.00 0.05 0.00 91 1020.1
20260906073514 15 42 0.0 0.0 0.00 0.05 0.00 91 1020.1
20260906073027 15 42 0.0 0.0 0.00 0.05 0.00 91 1020.1
20260906072514 15 42 0.0 0.0 0.00 0.05 0.00 91 1020.1
20260906072017 15 42 0.0 0.0 0.00 0.05 0.00 91 1020.0
20260906071529 15 42 0.0 0.0 0.00 0.05 0.00 91 1020.1
20260906071022 15 42 0.0 0.0 0.00 0.05 0.00 91 1020.0
20260906070516 15 42 0.0 0.0 0.00 0.05 0.00 91 1019.9
20260906070032 15 42 0.0 0.0 0.00 0.05 0.00 90 1020.0
20260906065516 15 42 0.0 0.0 0.00 0.05 0.00 90 1020.0
20260906065019 15 42 0.0 0.0 0.00 0.05 0.00 90 1019.9
20260906064527 15 42 0.0 0.0 0.00 0.05 0.00 90 1019.9
20260906064012 15 42 0.0 0.0 0.00 0.05 0.00 90 1019.9
20260906063512 15 42 0.0 0.0 0.00 0.05 0.00 90 1019.9
20260906063024 15 42 0.0 0.0 0.00 0.05 0.00 90 1019.9
20260906062515 14 42 0.0 0.0 0.00 0.05 0.00 90 1020.0
20260906062016 14 42 0.0 0.0 0.00 0.05 0.00 90 1019.8
20260906061528 14 42 0.0 0.0 0.00 0.05 0.00 90 1019.8
20260906061017 14 42 0.0 0.0 0.00 0.05 0.00 90 1019.8
20260906060518 14 42 0.0 0.0 0.00 0.05 0.00 90 1019.8
20260906060034 14 42 0.0 0.0 0.00 0.05 0.00 90 1019.7
20260906055515 14 42 0.0 0.0 0.00 0.05 0.00 90 1019.8
20260906055018 14 42 0.0 0.0 0.00 0.05 0.00 90 1019.7
20260906054535 14 42 0.0 0.0 0.00 0.05 0.00 90 1019.6
20260906054018 15 42 0.0 0.0 0.00 0.05 0.00 90 1019.6
20260906053517 15 42 0.0 0.0 0.00 0.05 0.00 89 1019.6
20260906053034 15 42 0.0 0.0 0.00 0.05 0.00 89 1019.6
20260906052512 15 42 0.0 0.0 0.00 0.05 0.00 89 1019.6
20260906052014 15 42 0.0 0.0 0.00 0.05 0.00 89 1019.5
20260906051527 15 42 0.0 0.0 0.00 0.05 0.00 89 1019.4
20260906051017 14 42 0.0 0.0 0.00 0.05 0.00 89 1019.3
20260906050517 14 42 0.0 0.0 0.00 0.05 0.00 89 1019.4
20260906050043 15 42 0.0 0.0 0.00 0.05 0.00 89 1019.5
20260906045517 15 42 0.0 0.0 0.00 0.05 0.05 89 1019.6
20260906045014 15 42 0.0 0.0 0.00 0.05 0.05 89 1019.6
20260906044536 15 42 0.0 0.0 0.00 0.05 0.05 88 1019.6
20260906044021 15 42 0.0 0.0 0.00 0.05 0.05 88 1019.5
20260906043521 15 42 0.0 0.0 0.00 0.05 0.05 88 1019.4
20260906043031 15 42 0.0 0.0 0.00 0.05 0.05 88 1019.4
20260906042517 15 42 0.0 0.0 0.00 0.05 0.05 88 1019.4
20260906042015 15 42 0.0 0.0 0.00 0.05 0.05 88 1019.5
20260906041531 15 42 0.0 0.0 0.00 0.05 0.05 87 1019.3
20260906041015 15 42 0.0 0.0 0.00 0.05 0.05 87 1019.3
20260906040514 15 42 0.0 0.0 0.00 0.05 0.05 87 1019.2
20260906040033 15 42 0.0 0.0 0.00 0.05 0.05 87 1019.2
20260906035519 15 42 0.0 0.0 0.00 0.05 0.05 88 1019.3
20260906035018 15 42 0.0 0.0 0.00 0.05 0.05 88 1019.3
20260906034535 15 42 0.0 0.0 0.00 0.05 0.05 88 1019.2
20260906034018 15 42 0.0 0.0 0.00 0.05 0.05 87 1019.1
20260906033517 15 42 0.0 0.0 0.00 0.05 0.05 87 1019.0
20260906033044 15 42 0.0 0.0 0.00 0.05 0.05 88 1019.1
20260906032518 15 42 0.0 0.0 0.00 0.05 0.05 88 1019.0
20260906032017 15 42 0.0 0.0 0.00 0.05 0.05 88 1018.9
20260906031544 15 42 0.0 0.0 0.00 0.05 0.05 88 1018.8
20260906031018 15 42 0.0 0.0 0.00 0.05 0.05 88 1019.0
20260906030520 15 42 0.0 0.0 0.00 0.05 0.05 87 1019.0
20260906030025 16 42 0.0 0.0 0.00 0.05 0.05 87 1019.0
20260906025514 16 42 0.0 0.0 0.00 0.05 0.05 87 1019.0
20260906025018 16 42 0.0 0.0 0.00 0.05 0.05 87 1018.9
20260906024530 16 42 0.0 0.0 0.00 0.05 0.05 86 1018.9
20260906024012 16 42 0.0 0.0 0.00 0.05 0.05 87 1019.1
20260906023508 16 42 0.0 0.0 0.00 0.05 0.05 87 1019.0
20260906023012 16 42 0.0 0.0 0.00 0.05 0.05 87 1019.0
20260906022509 16 42 0.0 0.0 0.00 0.05 0.05 86 1019.0
20260906022012 16 42 0.0 0.0 0.00 0.05 0.05 86 1018.9
20260906021520 16 42 0.0 0.0 0.00 0.05 0.05 86 1018.9
20260906021014 16 42 0.0 0.0 0.00 0.05 0.05 86 1019.0
20260906020515 16 42 0.0 0.0 0.00 0.05 0.05 86 1019.1
20260906020025 16 42 0.0 0.0 0.00 0.05 0.05 86 1019.0
20260906015515 16 42 0.0 0.0 0.00 0.05 0.05 86 1019.0
20260906015015 16 42 0.0 0.0 0.00 0.05 0.05 86 1019.0
20260906014532 16 42 0.0 0.0 0.00 0.05 0.05 86 1018.9
20260906014018 16 42 0.0 0.0 0.00 0.05 0.05 86 1018.9
20260906013515 16 42 0.0 0.0 0.00 0.05 0.05 86 1018.8
20260906013014 17 42 0.0 0.0 0.00 0.05 0.05 86 1018.8
20260906012509 17 42 0.0 0.0 0.00 0.05 0.05 86 1018.8
20260906012012 17 42 0.0 0.0 0.00 0.05 0.05 86 1018.9
20260906011523 17 42 0.0 0.0 0.00 0.05 0.05 86 1018.8
20260906011009 17 42 0.0 0.0 0.00 0.05 0.05 85 1018.8
20260906010516 17 42 0.0 0.0 0.00 0.05 0.05 85 1018.7
20260906010025 17 42 0.0 0.0 0.00 0.05 0.05 84 1018.6
20260906005514 17 42 0.0 0.0 0.00 0.05 0.05 83 1018.6
20260906005017 17 42 0.0 0.0 0.00 0.05 0.05 83 1018.5
20260906004527 18 42 0.0 0.0 0.00 0.05 0.05 82 1018.6
20260906004014 18 42 0.0 0.0 0.00 0.05 0.05 80 1018.5
20260906003518 18 42 0.0 0.0 0.00 0.05 0.05 80 1018.6
20260906003030 18 42 0.0 0.0 0.00 0.05 0.05 80 1018.7
20260906002516 18 42 0.0 0.0 0.00 0.05 0.05 79 1018.7
20260906002010 19 42 0.0 0.0 0.00 0.05 0.05 78 1018.7
20260906001512 19 42 0.0 0.0 0.00 0.05 0.05 77 1018.7
20260906001011 20 42 0.0 0.0 0.00 0.05 0.05 77 1018.6
20260906000510 20 42 0.0 0.0 0.00 0.05 0.05 76 1018.4
20260906000020 20 42 0.0 0.0 0.00 0.05 0.05 75 1018.4
20260905235511 20 42 0.0 0.0 0.00 0.05 0.05 74 1018.3
20260905235018 20 42 0.0 0.0 0.00 0.05 0.05 74 1018.3
20260905234526 21 42 0.0 0.0 0.00 0.05 0.05 73 1018.4
20260905234014 21 42 0.0 0.0 0.00 0.05 0.05 73 1018.5
20260905233515 21 42 0.0 3.2 0.00 0.05 0.05 73 1018.7
20260905233030 21 42 0.0 8.0 0.00 0.05 0.05 72 1018.9
20260905232516 21 42 0.0 8.0 0.00 0.05 0.05 71 1019.0
20260905232016 21 22 0.0 3.2 0.00 0.05 0.05 71 1019.1
20260905231533 22 64 0.0 3.2 0.00 0.05 0.05 71 1019.0
20260905231016 22 62 0.0 3.2 0.00 0.05 0.05 71 1018.9
20260905230511 22 11 1.6 3.2 0.00 0.05 0.05 71 1018.8
20260905230019 22 55 0.0 3.2 0.00 0.05 0.05 71 1018.8
20260905225512 22 84 0.0 3.2 0.00 0.05 0.05 71 1018.8
20260905225012 22 50 0.0 3.2 0.00 0.05 0.05 70 1018.7
20260905224533 22 106 0.0 4.8 0.00 0.05 0.05 71 1018.7
20260905224019 22 46 0.0 4.8 0.00 0.05 0.05 70 1018.6
20260905223514 22 344 0.0 4.8 0.00 0.05 0.05 70 1018.5
20260905223030 23 79 0.0 4.8 0.00 0.05 0.05 69 1018.4
20260905222515 23 56 0.0 3.2 0.00 0.05 0.05 71 1018.4
20260905222014 23 95 0.0 4.8 0.00 0.05 0.05 71 1018.4
20260905221531 23 75 0.0 4.8 0.00 0.05 0.05 70 1018.3
20260905221019 23 32 1.6 4.8 0.00 0.05 0.05 69 1018.3
20260905220517 23 62 0.0 6.4 0.00 0.05 0.05 70 1018.4
20260905220039 23 62 0.0 6.4 0.00 0.05 0.05 70 1018.5
20260905215512 23 12 1.6 6.4 0.00 0.05 0.05 69 1018.4
20260905215010 23 71 0.0 8.0 0.00 0.05 0.05 72 1018.4
20260905214524 23 24 1.6 8.0 0.00 0.05 0.05 70 1018.4
20260905214014 24 317 1.6 6.4 0.00 0.05 0.05 69 1018.5
20260905213514 23 81 0.0 6.4 0.00 0.05 0.05 70 1018.5
20260905213027 23 20 1.6 11.3 0.00 0.05 0.05 70 1018.6
20260905212514 23 5 3.2 11.3 0.00 0.05 0.05 68 1018.5
20260905212018 23 90 0.0 6.4 0.00 0.05 0.05 69 1018.5
20260905211532 23 53 1.6 8.0 0.00 0.05 0.05 68 1018.5
20260905211016 24 78 1.6 8.0 0.00 0.05 0.05 68 1018.5
20260905210519 24 5 1.6 8.0 0.00 0.05 0.05 69 1018.4
20260905210033 23 14 0.0 8.0 0.00 0.05 0.05 68 1018.4
20260905205518 24 19 3.2 8.0 0.00 0.05 0.05 67 1018.4
20260905205020 24 101 0.0 6.4 0.00 0.05 0.05 71 1018.3
20260905204535 23 17 0.0 6.4 0.00 0.05 0.05 72 1018.3
20260905204013 23 18 1.6 11.3 0.00 0.05 0.05 69 1018.2
20260905203512 24 50 1.6 14.5 0.00 0.05 0.05 69 1018.3
20260905203028 23 17 4.8 14.5 0.00 0.05 0.05 70 1018.2
20260905202514 23 42 3.2 11.3 0.00 0.05 0.05 71 1018.2
20260905202017 23 68 1.6 11.3 0.00 0.05 0.05 70 1018.2
20260905201532 23 96 1.6 4.8 0.00 0.05 0.05 72 1018.2
20260905201019 23 77 1.6 3.2 0.00 0.05 0.05 74 1018.3
20260905200517 23 130 0.0 3.2 0.00 0.05 0.05 75 1018.4
20260905200033 22 92 0.0 3.2 0.00 0.05 0.05 76 1018.4
20260905195516 22 44 1.6 6.4 0.00 0.05 0.05 75 1018.4
20260905195020 22 88 0.0 6.4 0.00 0.05 0.05 76 1018.5
20260905194537 23 83 0.0 4.8 0.00 0.05 0.05 76 1018.5
20260905194020 23 105 1.6 4.8 0.00 0.05 0.05 76 1018.4
20260905193519 23 360 1.6 4.8 0.00 0.05 0.05 77 1018.5
20260905193027 23 83 1.6 3.2 0.00 0.05 0.05 77 1018.5
20260905192514 23 91 0.0 0.0 0.00 0.05 0.05 78 1018.4
20260905192017 22 91 0.0 0.0 0.00 0.05 0.05 79 1018.4
20260905191530 22 91 0.0 6.4 0.00 0.05 0.05 80 1018.5
20260905191016 22 91 0.0 6.4 0.00 0.05 0.05 79 1018.5
20260905190518 22 65 0.0 4.8 0.00 0.05 0.05 80 1018.5
20260905190035 22 54 0.0 6.4 0.00 0.05 0.05 80 1018.5
20260905185517 22 5 1.6 6.4 0.00 0.05 0.05 80 1018.5
20260905185017 22 15 3.2 8.0 0.00 0.05 0.05 80 1018.6
20260905184536 22 23 3.2 8.0 0.00 0.05 0.05 79 1018.6
20260905184018 22 14 0.0 6.4 0.00 0.05 0.05 80 1018.5
20260905183519 22 352 1.6 6.4 0.00 0.05 0.05 80 1018.5
20260905183033 22 85 0.0 4.8 0.00 0.05 0.05 81 1018.5
20260905182516 22 10 0.0 6.4 0.00 0.05 0.05 81 1018.5
20260905182016 22 16 1.6 8.0 0.00 0.05 0.05 82 1018.6
20260905181532 22 14 3.2 8.0 0.00 0.05 0.05 81 1018.6
20260905181017 21 85 0.0 4.8 0.00 0.05 0.05 83 1018.6
20260905180515 21 360 3.2 4.8 0.00 0.05 0.05 83 1018.7
20260905180032 21 61 0.0 4.8 0.00 0.05 0.05 83 1018.6
20260905175516 21 61 0.0 6.4 0.00 0.05 0.05 82 1018.6
20260905175019 21 19 1.6 6.4 0.00 0.05 0.05 82 1018.6
20260905174541 21 5 3.2 6.4 0.00 0.05 0.05 83 1018.6